Welcome to the New NWS' Forecast!
Most changes are behind the scenes, but click here for differences you might notice.

Regional Weather Roundup (RWR)

Issued by Gray - Portland, ME (GYX)

                            
000
ASUS41 KGYX 181010
RWRGYX
WEATHER ROUNDUP FOR MAINE AND NEW HAMPSHIRE
NATIONAL WEATHER SERVICE GRAY ME
600 AM EDT THU OCT 18 2018

MEZ002-005-006-010-012-015-018-020-021-024-026-027-029-181100-
MAINE
  
CITY           SKY/WX    TMP DP  RH WIND       PRES   REMARKS
PORTLAND       FAIR      35  26  69 W9        30.00R                  
SANFORD        FAIR      34  26  72 NW13      30.04R                  
BAR HARBOR     FAIR      35  26  69 NW8G16    29.87R                  
WISCASSET      FAIR      35  27  72 W8        29.99R                  
ROCKLAND       FAIR      35  26  69 W18       29.92R                  
FRYEBURG       MOCLDY    32  26  78 CALM      30.02R                  
LEWISTONAUBURN FLURRIES  32  29  88 NW10      30.00R                  
AUGUSTA        FAIR      33  24  69 W9        29.96R                  
WATERVILLE     FAIR      33  24  69 NW12      29.92R                  
BANGOR         FAIR      33  24  69 NW9       29.89R                  
GREENVILLE       N/A     29  18  63 NW17G30   29.81R WCI  17          
MILLINOCKET    CLOUDY    34  21  59 W15G26    29.83R                  
HOULTON        FAIR      31  26  82 W10G23    29.73R                  
PRESQUE ISLE   FAIR      30  25  81 W14G22    29.74R WCI  19          
FRENCHVILLE    CLOUDY    31  23  72 W21G31    29.68R WCI  18          
CARIBOU        FAIR      31  22  69 W12G21    29.70R                  
$$

NHZ002-005-008-009-011-012-014-181100-
NEW HAMPSHIRE
  
CITY           SKY/WX    TMP DP  RH WIND       PRES   REMARKS
PORTSMOUTH     PTCLDY    35  22  59 W14G25    30.04R                  
ROCHESTER      FAIR      34  24  67 W14G25    30.03R                  
NASHUA         FAIR      35  24  64 W8        30.10R                  
MANCHESTER     FAIR      35  25  66 NW10G23   30.07R                  
CONCORD        FAIR      33  23  66 W13G22    30.08R                  
BERLIN         LGT SNOW  30  25  81 NW8G20    29.99R                  
WHITEFIELD     FLURRIES  31  24  75 W14G22    30.03R                  
JAFFREY        FAIR      33  17  51 NW13G23   30.09R                  
KEENE          FAIR      32  19  58 CALM      30.13R                  
LEBANON        CLOUDY    34  19  54 NW14G26   30.10R                  
MT WASHINGTON  SNOW       9   9 100 NW69G92     N/A  VSB 1/16WCI -22  
$$

VTZ005-007-008-181100-
VERMONT
  
CITY           SKY/WX    TMP DP  RH WIND       PRES   REMARKS
ST JOHNSBURY     N/A     32  23  69 MISG      30.06R                  
MONTPELIER     CLOUDY    30  21  69 NW21G29   30.13R WCI  17          
BURLINGTON     MOCLDY    35  21  56 NW13      30.16R                  
$$

MAZ007-012-024-CTZ003-RIZ002-NYZ038-NYZ072-181100-
SOUTHERN NEW ENGLAND AND NY
  
CITY           SKY/WX    TMP DP  RH WIND       PRES   REMARKS
BOSTON         FAIR      40  22  48 W16G25    30.09R                  
WORCESTER      FAIR      33  19  56 W17G26    30.08R                  
NANTUCKET      MOCLDY    44  19  36 W28G41    30.08R                  
PROVIDENCE     FAIR      40  22  48 NW12      30.13R                  
HARTFORD       FAIR      37  19  48 NW16G23   30.17R                  
ALBANY         FAIR      33  21  61 NW8       30.24R                  
NEW YORK CITY  FAIR      45  27  49 NW14G24   30.25R                  
$$

ANZ081-ANZ082-ANZ150-NHZ014-MEZ023>029-181100-
COASTAL MARINE OBSERVATIONS
  
STATION/POSITION TIME  TEMP    WIND        PRES    WAVE
                       AIR SEA DIR/SP/G            HT/PER
                 (UTC) (F)     (DEG/KT/KT) (MB)    (FT/S)
MOUNT DESERT ROC 1000   40     280/ 37/ 40 1011.0R
MATINICUS ROCK   0900   40     300/ 32/ 36 1011.4R
ISLE OF SHOALS   0900   38     280/ 23/ 27 1015.8R
JEFFREYS LEDGE   0906      55                N/A     6/ 6
$$

.............KEY..............
   WCI - WIND CHILL
   TC  - TEMPERATURE IN CELSIUS
   VSB - VISIBILITY IN MILES
   HX  - HEAT INDEX
   FAIR- INDICATES FEW OR NO CLOUDS BELOW 12,000 FT, WITH NO 
         SIGNIFICANT WEATHER AND/OR OBSTRUCTIONS TO VISIBILITY.